DW3897 Weather Reports


time (UTC)temp
C
wind
direction
speed
KPH
gust
KPH
rain 1hr
cm
rain 24hr
cm
rain mn
cm
humidity
%
barometer
mb
20260502220047 11 259 4.8 14.5 0.00 0.10 0.05 39 1011.4
20260502214536 11 280 4.8 16.1 0.00 0.10 0.05 38 1011.3
20260502213030 11 302 4.8 14.5 0.00 0.10 0.05 37 1011.2
20260502211522 11 284 6.4 14.5 0.00 0.10 0.05 36 1011.1
20260502210020 11 286 4.8 17.7 0.00 0.10 0.05 38 1011.0
20260502204550 11 261 8.0 19.3 0.00 0.10 0.05 37 1011.0
20260502203101 11 248 3.2 16.1 0.00 0.10 0.05 43 1011.2
20260502201530 11 303 1.6 12.9 0.00 0.10 0.05 43 1011.3
20260502200030 12 250 4.8 14.5 0.00 0.10 0.05 42 1011.4
20260502194511 12 259 3.2 11.3 0.00 0.10 0.05 43 1011.5
20260502193011 12 267 6.4 17.7 0.00 0.10 0.05 43 1011.4
20260502191553 12 267 1.6 14.5 0.00 0.10 0.05 42 1011.4
20260502190053 12 262 6.4 17.7 0.00 0.10 0.05 43 1011.6
20260502184540 12 300 4.8 14.5 0.00 0.10 0.05 44 1011.2
20260502183038 12 271 1.6 9.7 0.00 0.10 0.05 44 1011.2
20260502181536 11 265 1.6 19.3 0.00 0.10 0.05 48 1011.2
20260502163031 10 263 0.0 6.4 0.00 0.10 0.05 57 1011.8
20260502161555 10 271 3.2 12.9 0.00 0.10 0.05 60 1011.9
20260502151511 9 265 3.2 12.9 0.00 0.10 0.05 63 1012.1
20260502123034 7 273 1.6 6.4 0.00 0.10 0.05 84 1012.2
20260502121512 7 265 1.6 9.7 0.00 0.10 0.05 85 1012.2
20260502114629 6 278 1.6 4.8 0.00 0.10 0.05 88 1012.0
20260502113051 6 271 0.0 3.2 0.00 0.10 0.05 88 1012.0
20260502111531 6 270 0.0 3.2 0.00 0.10 0.05 89 1011.9
20260502110032 6 269 0.0 8.0 0.00 0.10 0.05 89 1011.7
20260502104519 6 310 1.6 6.4 0.00 0.10 0.05 90 1011.4
20260502103010 6 274 0.0 4.8 0.00 0.10 0.05 91 1011.3
20260502101611 6 278 0.0 4.8 0.00 0.10 0.05 92 1011.2
20260502100106 7 269 0.0 3.2 0.00 0.10 0.05 93 1011.2
20260502091508 7 309 0.0 1.6 0.00 0.10 0.05 95 1010.9
20260502070100 7 308 0.0 0.0 0.00 0.10 0.05 95 1011.3
20260502064547 7 308 0.0 0.0 0.00 0.10 0.05 95 1011.3
20260502063032 7 308 0.0 0.0 0.00 0.10 0.05 94 1010.9
20260502061512 7 308 0.0 0.0 0.00 0.10 0.05 94 1011.0
20260502060023 7 308 0.0 0.0 0.00 0.10 0.05 94 1011.4
20260502054609 7 308 0.0 0.0 0.05 0.10 0.05 93 1011.5
20260502053057 8 308 0.0 0.0 0.05 0.10 0.05 93 1011.7
20260502051551 8 308 0.0 0.0 0.05 0.10 0.05 93 1011.6
20260502050034 8 308 0.0 0.0 0.05 0.10 0.05 92 1011.5
20260502044533 8 308 0.0 0.0 0.05 0.05 0.00 91 1011.8
20260502043013 8 308 0.0 0.0 0.05 0.05 0.00 91 1011.4
20260502041512 8 308 0.0 0.0 0.05 0.05 0.05 90 1011.4
20260502040056 8 308 0.0 0.0 0.05 0.05 0.05 88 1011.5
20260502034552 8 308 0.0 0.0 0.00 0.00 0.00 86 1011.6
20260502033034 9 308 0.0 0.0 0.00 0.00 0.00 83 1011.4
20260502031533 10 308 0.0 0.0 0.00 0.00 0.00 79 1011.3
20260502030015 10 308 0.0 0.0 0.00 0.00 0.00 74 1011.3
20260502024516 11 308 0.0 0.0 0.00 0.00 0.00 69 1011.4
20260502023104 11 308 0.0 0.0 0.00 0.00 0.00 57 1011.2
20260502021556 11 308 0.0 0.0 0.00 0.00 0.00 55 1011.1
20260502020037 11 308 0.0 0.0 0.00 0.00 0.00 54 1011.1
20260502014537 11 308 0.0 0.0 0.00 0.00 0.00 55 1011.1
20260502013018 11 308 0.0 0.0 0.00 0.00 0.00 54 1011.0
20260502011518 12 308 0.0 0.0 0.00 0.00 0.00 52 1011.0
20260502010110 12 308 0.0 0.0 0.00 0.00 0.00 50 1010.9
20260502004559 12 308 0.0 0.0 0.00 0.00 0.00 48 1010.6
20260502003042 12 308 0.0 1.6 0.00 0.00 0.00 46 1010.5
20260502001541 12 308 0.0 0.0 0.00 0.00 0.00 45 1010.6
20260502000025 13 310 0.0 4.8 0.00 0.00 0.00 45 1010.5
20260501234523 13 290 0.0 4.8 0.00 0.00 0.00 43 1010.3
20260501233005 13 290 0.0 4.8 0.00 0.00 0.00 42 1010.1
20260501231507 13 299 1.6 8.0 0.00 0.00 0.00 41 1010.0
20260501230046 13 281 1.6 9.7 0.00 0.00 0.00 40 1009.9
20260501224546 14 290 0.0 6.4 0.00 0.00 0.00 40 1009.7
20260501223029 14 277 1.6 6.4 0.00 0.00 0.00 40 1009.6
20260501221530 14 266 1.6 11.3 0.00 0.00 0.00 38 1009.5